[Date Prev][Date Next][Thread Prev][Thread Next] - [Date Index][Thread Index][Author Index]
2 Line ISS Keps 5-8
- Subject: [sarex] 2 Line ISS Keps 5-8
- From: "Dave Larsen PhD" <doc@xxxxxxxxxxx>
- Date: Sat, 8 May 2004 03:07:33 -0700
ISS
1 25544U 98067A 04129.35796296 .00010237 00000-0 90574-4 0 7320
2 25544 51.6270 168.7389 0010933 111.3365 73.4825 15.69265035312064
----
Via the sarex mailing list at AMSAT.ORG courtesy of AMSAT-NA.
To unsubscribe, send "unsubscribe sarex" to Majordomo@amsat.org
AMSAT Home